Snowfall_Accumulation
0.0 0.0 0.0 0.0 0.0 0.0 0.0 0.0 0.0 0.0 0.0 0.0 0.0 0.0 0.0 0.0 0.0 0.0 0.0 0.0 0.0 0.0 0.0 0.0 0.0 0.0 0.0 0.0 0.0 0.0 0.0 0.1 0.2 0.0 0.0 0.1 0.0 0.0 0.0 0.0 0.0 0.0 0.0
0.0 0.0 0.0 0.0 0.0 0.0 0.0 0.0 0.0 0.0 0.0 0.0 0.0 0.0 0.0 0.0 0.0 0.0 0.0 0.0 0.0 0.0 0.0 0.0 0.0 0.0 0.0 0.0 0.0 0.0 0.1 0.1 0.4 0.8 0.6 0.5 0.4 0.2 0.2 0.2 0.1 0.1 0.1
0.0 0.0 0.0 0.0 0.0 0.0 0.0 0.0 0.0 0.0 0.0 0.0 0.0 0.0 0.0 0.0 0.0 0.0 0.1 0.1 0.1 0.0 0.0 0.0 0.0 0.0 0.1 0.1 0.0 0.1 0.3 0.4 0.9 1.3 0.6 0.3 0.3 0.2 0.2 0.1 0.1 0.1 0.0
0.0 0.0 0.0 0.0 0.0 0.0 0.0 0.0 0.0 0.0 0.0 0.0 0.0 0.0 0.0 0.2 0.1 0.1 0.1 0.0 0.0 0.1 0.0 0.0 0.1 0.1 0.2 0.4 0.7 0.7 1.3 1.1 1.0 1.3 1.4 1.0 0.7 0.5 0.4 0.4 0.3 0.1 0.1
0.1 0.0 0.0 0.0 0.1 0.0 0.1 0.2 0.2 0.0 0.0 0.0 0.0 0.0 0.0 0.1 0.0 0.1 0.1 0.1 0.1 0.1 0.1 0.3 0.3 0.4 0.2 0.4 0.8 1.2 1.2 1.5 2.0 2.6 2.4 1.7 0.9 0.6 0.5 0.4 0.5 0.4 0.2
0.1 0.1 0.1 0.1 0.1 0.1 0.3 0.3 0.0 0.3 0.3 0.1 0.2 0.0 0.0 0.1 0.0 0.0 0.1 0.2 0.3 0.5 0.6 0.6 0.8 0.7 0.4 0.4 0.5 0.7 1.6 2.5 3.2 3.6 3.2 2.3 1.2 0.7 0.5 0.8 1.2 1.7 1.3
0.1 0.1 0.2 0.2 0.1 0.1 0.1 0.4 0.2 0.5 0.5 0.5 0.3 0.1 0.3 0.2 0.1 0.1 0.3 0.5 0.7 0.9 1.0 1.0 0.9 0.7 0.6 0.4 0.4 0.9 1.3 1.9 2.4 2.6 2.3 1.5 1.1 0.9 1.6 2.5 2.6 2.8 2.0
0.1 0.2 0.2 0.3 0.4 0.5 0.8 1.0 1.2 1.1 1.2 1.5 1.2 1.1 0.8 0.7 0.4 0.5 0.7 0.8 0.7 0.7 0.6 0.5 0.5 0.3 0.3 0.7 1.2 1.7 1.2 0.9 0.9 0.7 0.8 0.9 0.9 1.0 2.1 3.4 3.2 2.3 0.9
0.8 0.7 0.9 0.9 0.8 1.4 1.8 1.8 1.7 1.5 1.6 2.0 1.9 1.9 1.5 1.1 0.3 0.2 0.6 0.7 0.6 0.4 0.4 0.3 0.4 0.3 0.5 1.6 2.5 2.4 1.3 0.4 0.2 0.4 0.8 0.8 0.8 0.7 0.8 2.1 3.2 4.0 2.9
0.8 0.9 0.7 1.0 1.1 1.3 1.8 1.7 1.8 1.9 1.9 2.1 2.1 1.5 1.1 0.9 0.4 0.3 0.3 0.4 0.4 0.3 0.4 0.3 0.3 0.5 1.2 2.4 2.6 2.4 1.3 0.4 0.7 0.6 0.3 0.1 0.1 0.0 0.4 1.8 5.3 8.8 6.6
0.9 0.7 0.9 0.7 1.1 1.2 1.2 1.6 1.2 1.8 1.6 1.5 1.2 0.8 0.6 0.3 0.2 0.1 0.2 0.5 0.7 0.8 0.7 0.3 0.1 0.8 1.9 2.3 1.9 0.9 0.9 1.6 1.3 0.5 0.2 0.1 0.1 0.2 0.3 0.7 2.6 8.1 10.6
1.1 1.1 1.0 1.0 1.0 0.8 0.9 1.1 1.2 0.9 0.6 0.5 0.4 0.2 0.2 0.2 0.1 0.1 0.3 0.7 1.2 1.3 1.1 0.5 0.6 1.5 1.6 1.0 0.4 0.5 1.1 1.2 0.6 0.6 0.7 0.6 0.8 0.7 0.8 0.8 1.1 2.3 5.0
1.3 1.3 1.0 0.9 0.7 0.7 0.6 0.4 0.5 0.5 0.5 0.6 0.4 0.4 0.4 0.2 0.2 0.2 0.5 0.9 1.4 1.3 1.0 1.2 1.4 1.1 0.7 0.4 0.3 0.6 0.7 1.1 1.7 2.5 2.5 1.9 1.3 1.5 1.2 1.8 2.0 2.4 3.2
0.5 0.6 0.6 0.4 0.3 0.3 0.3 0.2 0.2 0.3 0.4 0.5 0.5 0.5 0.5 0.3 0.2 0.3 0.7 1.0 1.1 1.2 1.2 1.3 0.9 0.3 0.4 0.5 0.6 0.9 1.1 1.5 2.9 3.7 3.4 2.7 2.3 2.9 3.2 4.5 5.7 5.9 6.4
0.2 0.2 0.2 0.2 0.3 0.1 0.1 0.2 0.3 0.2 0.4 0.6 0.7 0.6 0.8 0.8 0.5 1.2 1.6 1.5 1.8 1.8 1.7 0.7 0.5 0.8 0.7 0.9 1.0 1.1 1.3 1.8 2.4 3.1 3.6 3.9 3.7 4.4 5.5 6.4 8.0 8.7 9.1
0.2 0.2 0.1 0.2 0.2 0.1 0.2 0.2 0.2 0.1 0.1 0.4 0.3 0.6 0.6 0.7 0.9 1.2 1.4 1.8 1.9 1.5 1.1 1.1 1.2 1.4 1.6 1.4 1.5 1.6 1.8 2.2 3.1 4.2 4.5 5.0 5.9 6.6 7.5 8.0 9.2 10.2 9.6
0.4 0.3 0.3 0.3 0.3 0.3 0.4 0.4 0.4 0.2 0.3 0.3 0.2 0.3 0.5 0.6 0.7 0.9 1.3 1.6 1.0 0.7 0.9 1.4 1.7 1.8 1.9 2.0 2.3 2.7 2.9 3.1 4.3 6.0 6.8 7.3 8.2 8.4 9.1 9.8 9.9 9.6 8.4
0.4 0.4 0.3 0.4 0.4 0.3 0.4 0.4 0.4 0.4 0.4 0.3 0.3 0.2 0.3 0.5 0.5 0.8 1.2 0.8 0.4 0.6 1.0 1.5 1.8 2.1 2.3 2.7 3.0 3.9 4.3 4.4 5.5 6.7 7.5 7.9 9.1 10.2 10.6 10.0 9.4 8.8 7.9
0.5 0.5 0.5 0.4 0.4 0.4 0.3 0.3 0.4 0.4 0.5 0.4 0.4 0.5 0.5 0.2 0.4 0.6 0.7 0.7 1.1 1.3 1.4 1.3 1.3 1.8 2.5 2.9 3.5 4.3 5.3 6.4 7.6 9.1 9.4 9.7 10.2 11.6 11.6 9.9 8.6 7.2 6.2
0.6 0.6 0.6 0.5 0.6 0.6 0.6 0.4 0.5 0.5 0.8 0.6 0.6 0.6 0.8 1.1 1.1 0.8 0.9 1.0 1.7 1.8 1.8 1.9 1.5 1.7 2.4 3.1 3.9 4.7 6.1 7.1 8.3 9.1 9.6 9.8 10.1 11.0 10.6 8.3 6.5 5.9 5.2
0.5 0.6 0.6 0.6 0.6 0.7 0.6 0.7 0.9 0.9 0.9 0.9 0.9 0.8 1.2 1.7 1.2 1.1 1.3 1.7 1.9 2.3 2.4 2.5 2.5 2.4 3.1 3.6 4.5 5.4 6.7 7.7 8.6 10.0 10.2 9.7 9.4 8.6 6.9 6.0 5.5 5.4 5.4
0.6 0.5 0.7 0.8 0.7 0.9 1.1 1.1 1.1 1.1 1.0 1.0 1.0 1.1 1.2 1.2 1.0 1.1 1.3 1.2 1.4 1.6 2.1 2.8 3.1 3.1 4.4 6.5 8.1 8.9 8.7 8.5 9.1 10.4 10.5 9.3 8.1 6.9 6.1 5.9 5.7 5.7 5.5
0.6 0.8 0.9 0.9 1.1 1.3 1.4 1.2 1.2 1.3 1.4 1.4 1.5 1.5 1.5 1.6 1.3 1.3 1.3 1.3 1.3 1.4 1.5 2.2 3.1 2.9 3.6 5.8 8.4 11.9 13.2 11.6 10.8 11.2 11.2 9.6 7.9 7.2 7.2 7.2 6.4 6.1 5.7
0.7 0.9 1.2 1.2 1.2 1.4 1.4 1.4 1.3 1.4 1.5 1.6 1.7 1.8 1.9 1.9 1.9 1.6 1.5 1.5 1.5 1.4 1.6 2.2 2.9 3.3 4.0 6.1 7.8 9.5 11.1 12.3 13.7 13.2 12.3 11.6 9.6 8.0 7.5 7.2 6.2 5.7 5.5
1.1 1.1 1.4 1.5 1.6 1.5 1.7 1.7 1.6 1.7 1.9 1.9 1.9 1.8 1.9 2.1 1.9 1.9 1.8 1.8 1.7 1.8 1.6 2.2 3.0 3.9 4.7 6.1 7.8 9.0 9.5 10.6 11.6 11.4 10.3 9.6 8.6 7.3 7.0 6.7 6.0 5.4 5.4
1.4 1.6 1.7 1.8 1.9 1.6 1.9 2.0 2.1 2.2 2.3 2.3 2.3 2.2 2.3 2.3 2.2 2.1 2.2 2.3 2.5 2.4 2.1 2.3 2.8 4.1 5.3 6.4 6.9 8.1 9.0 8.5 6.7 5.6 6.7 7.7 7.5 6.3 6.2 6.6 6.0 5.7 5.6